FW2987 Weather Reports


time (UTC)temp
F
wind
direction
speed
knots
gust
knots
rain 1hr
in
rain 24hr
in
rain mn
in
humidity
%
barometer
mb
20260507233157 50 339 0.0 0.0 0.00 0.00 0.00 100 1012.7
20260507232652 50 339 0.0 0.0 0.00 0.00 0.00 100 1012.7
20260507232151 50 338 0.0 0.0 0.00 0.00 0.00 100 1012.7
20260507231648 50 338 0.0 0.0 0.00 0.00 0.00 100 1012.8
20260507231148 50 338 0.0 0.0 0.00 0.00 0.00 100 1012.8
20260507230645 50 339 0.0 0.0 0.00 0.00 0.00 100 1012.8
20260507230143 50 339 0.0 0.0 0.00 0.00 0.00 100 1012.8
20260507225642 50 338 0.0 0.0 0.00 0.00 0.00 100 1012.8
20260507225138 50 338 0.0 0.0 0.00 0.00 0.00 100 1012.8
20260507224628 50 339 0.0 0.0 0.00 0.00 0.00 100 1012.8
20260507224124 50 338 0.0 0.0 0.00 0.00 0.00 100 1012.8
20260507223621 50 338 0.0 0.0 0.00 0.00 0.00 100 1012.9
20260507223109 50 338 0.0 0.0 0.00 0.00 0.00 100 1012.8
20260507222606 50 339 0.0 0.0 0.00 0.00 0.00 100 1012.9
20260507221604 50 339 0.0 0.0 0.00 0.00 0.00 100 1013.0
20260507221103 50 338 0.0 0.0 0.00 0.00 0.00 100 1013.0
20260507220602 50 338 0.0 0.0 0.00 0.00 0.00 100 1013.0
20260507220109 50 338 0.0 0.0 0.00 0.00 0.00 100 1013.1
20260507215606 51 338 0.0 0.0 0.00 0.00 0.00 100 1013.2
20260507215110 51 338 0.0 0.0 0.00 0.00 0.00 100 1013.1
20260507214609 51 339 0.0 0.0 0.00 0.00 0.00 100 1013.1
20260507214113 51 339 0.0 0.0 0.00 0.00 0.00 100 1013.1
20260507213615 51 338 0.0 0.0 0.00 0.00 0.00 100 1013.1
20260507213118 52 339 0.0 0.0 0.00 0.00 0.00 100 1013.2
20260507212607 52 338 0.0 0.0 0.00 0.00 0.00 100 1013.2
20260507212109 52 338 0.0 0.0 0.00 0.00 0.00 100 1013.2
20260507211612 52 338 0.0 0.0 0.00 0.00 0.00 100 1013.2
20260507211114 52 338 0.0 0.0 0.00 0.00 0.00 100 1013.1
20260507210615 52 338 0.0 0.0 0.00 0.00 0.00 100 1013.0
20260507210114 52 338 0.0 0.0 0.00 0.00 0.00 100 1013.1
20260507205616 52 338 0.0 0.0 0.00 0.00 0.00 100 1013.0
20260507205118 53 338 0.0 0.0 0.00 0.00 0.00 100 1013.0
20260507204607 53 339 0.0 0.0 0.00 0.00 0.00 100 1013.1
20260507204103 53 338 0.0 0.0 0.00 0.00 0.00 100 1013.1
20260507203604 53 338 0.0 0.0 0.00 0.00 0.00 100 1013.1
20260507203105 53 339 0.0 0.0 0.00 0.00 0.00 100 1013.0
20260507202601 53 339 0.0 0.0 0.00 0.00 0.00 100 1013.1
20260507202100 53 338 0.0 0.0 0.00 0.00 0.00 100 1013.0
20260507201607 54 339 0.0 0.0 0.00 0.00 0.00 100 1013.0
20260507201056 54 338 0.0 0.0 0.00 0.00 0.00 100 1013.0
20260507200549 54 338 0.0 0.0 0.00 0.00 0.00 100 1012.9
20260507200043 54 338 0.0 0.0 0.00 0.00 0.00 100 1012.9
20260507195542 54 338 0.0 0.0 0.00 0.00 0.00 100 1012.9
20260507195040 54 338 0.0 0.0 0.00 0.00 0.00 100 1012.8
20260507194537 55 339 0.0 0.0 0.00 0.00 0.00 100 1012.8
20260507194037 55 338 0.0 0.0 0.00 0.00 0.00 100 1012.8
20260507193534 55 338 0.0 0.9 0.00 0.00 0.00 100 1012.8
20260507193024 55 338 0.0 1.7 0.00 0.00 0.00 100 1012.7
20260507192521 55 339 0.0 0.0 0.00 0.00 0.00 100 1012.7
20260507192019 56 338 0.0 0.0 0.00 0.00 0.00 100 1012.7
20260507191517 56 338 0.0 0.0 0.00 0.00 0.00 100 1012.7
20260507191014 56 339 0.0 0.0 0.00 0.00 0.00 100 1012.6
20260507190513 56 339 0.0 0.0 0.00 0.00 0.00 100 1012.7
20260507190012 57 338 0.0 0.0 0.00 0.00 0.00 100 1012.6
20260507185509 57 338 0.0 2.6 0.00 0.00 0.00 100 1012.7
20260507185008 57 338 0.9 4.3 0.00 0.00 0.00 100 1012.6
20260507184501 57 339 1.7 4.3 0.00 0.00 0.00 100 1012.6
20260507184001 58 339 0.9 3.5 0.00 0.00 0.00 100 1012.6
20260507182002 58 338 0.9 3.5 0.00 0.00 0.00 100 1012.6
20260507090157 61 117 2.6 7.0 0.00 0.00 0.00 100 1013.4
20260507085653 60 119 0.9 5.2 0.00 0.00 0.00 100 1013.4
20260507085150 60 119 2.6 5.2 0.00 0.00 0.00 100 1013.4
20260507084648 60 119 1.7 5.2 0.00 0.00 0.00 100 1013.4
20260507084137 60 119 1.7 6.1 0.00 0.00 0.00 100 1013.4
20260507083634 59 119 1.7 6.1 0.00 0.00 0.00 100 1013.4
20260507083132 59 119 2.6 6.1 0.00 0.00 0.00 100 1013.4
20260507082630 59 119 1.7 3.5 0.00 0.00 0.00 100 1013.4
20260507082130 59 119 1.7 7.0 0.00 0.00 0.00 100 1013.3
20260507081626 59 119 2.6 8.7 0.00 0.00 0.00 100 1013.3
20260507081127 59 119 4.3 8.7 0.00 0.00 0.00 100 1013.4
20260507080622 59 105 3.5 7.0 0.00 0.00 0.00 100 1013.4
20260507080123 59 105 2.6 6.1 0.00 0.00 0.00 100 1013.4
20260507075118 58 105 3.5 7.0 0.00 0.00 0.00 100 1013.3
20260507074613 58 105 4.3 7.0 0.00 0.00 0.00 100 1013.4
20260507074112 58 105 3.5 7.0 0.00 0.00 0.00 100 1013.4
20260507073610 57 105 3.5 7.0 0.00 0.00 0.00 100 1013.3
20260507073108 57 105 2.6 7.0 0.00 0.00 0.00 100 1013.3
20260507072607 56 103 3.5 7.0 0.00 0.00 0.00 100 1013.3
20260507072106 56 103 3.5 7.8 0.00 0.00 0.00 100 1013.3
20260507071602 56 103 3.5 7.8 0.00 0.00 0.00 100 1013.2
20260507071101 55 102 3.5 7.8 0.00 0.00 0.00 100 1013.3
20260507070558 55 89 5.2 7.8 0.00 0.00 0.00 100 1013.2
20260507070101 55 349 1.7 5.2 0.00 0.00 0.00 100 1013.2
20260507065555 55 348 1.7 4.3 0.00 0.00 0.00 100 1013.2
20260507065052 55 348 1.7 4.3 0.00 0.00 0.00 100 1013.2
20260507064551 54 348 0.0 0.0 0.00 0.00 0.00 100 1013.2
20260507064049 53 348 0.0 0.0 0.00 0.00 0.00 100 1013.1
20260507063550 52 348 0.0 0.0 0.00 0.00 0.00 100 1013.1
20260507063049 51 348 0.0 0.0 0.00 0.00 0.00 100 1013.1
20260507062542 50 348 0.0 0.0 0.00 0.00 0.00 100 1013.1
20260507062040 49 348 0.0 0.0 0.00 0.00 0.00 100 1013.1
20260507061541 49 348 0.0 0.0 0.00 0.00 0.00 100 1013.1
20260507061037 48 348 0.0 0.0 0.00 0.00 0.00 100 1013.1
20260507060534 48 348 0.0 0.0 0.00 0.00 0.00 100 1013.1
20260507060048 48 348 0.0 0.0 0.00 0.00 0.00 100 1013.2
20260507055534 48 348 0.0 0.0 0.00 0.00 0.00 100 1013.1
20260507055028 48 348 0.0 0.0 0.00 0.00 0.00 100 1013.1
20260507054533 48 348 0.0 0.0 0.00 0.00 0.00 100 1013.0
20260507054024 48 348 0.0 0.0 0.00 0.00 0.00 100 1013.1
20260507053522 48 348 0.0 0.0 0.00 0.00 0.00 100 1013.1
20260507053021 48 348 0.0 0.0 0.00 0.00 0.00 100 1013.0
20260507052520 48 348 0.0 0.0 0.00 0.00 0.00 100 1013.0
20260507052018 47 348 0.0 0.0 0.00 0.00 0.00 100 1013.0
20260507051515 47 348 0.0 0.0 0.00 0.00 0.00 100 1012.9
20260507051012 47 348 0.0 0.0 0.00 0.00 0.00 100 1013.0
20260507050510 47 348 0.0 0.0 0.00 0.00 0.00 100 1012.9
20260507050008 47 348 0.0 0.0 0.00 0.00 0.00 100 1012.8
20260507045506 48 348 0.0 0.0 0.00 0.00 0.00 100 1012.8
20260507045005 47 348 0.0 0.0 0.00 0.00 0.00 100 1012.8
20260507044506 48 348 0.0 0.0 0.00 0.00 0.00 100 1012.7
20260507044000 48 348 0.0 0.0 0.00 0.00 0.00 100 1012.7